Main page
METAR-TAF:

METAR-TAF

Airports :

Yasuj Airport

Yasuj, Iran

latitude: 30-41-49N, longitude: 051-33E, elevation: 1825 m

Current weather observation

The report was made 1 hour and 19 minutes ago, at 09:00 UTC
Calm wind
Temperature 15°C
Humidity 29%
Pressure 1023 hPa
Visibility 10 km or more
Scattered clouds at a height of 9000 ft

METAR: OISY 190900Z 00000KT 9999 SCT090 15/M03 Q1023

Time: 13:49 (10:19 UTC)


TAF: missing

Weather observations and forecasts of more than 4000 airports (METAR and TAF reports).

The available stations are represented by yellow and red dots on the map.

Hover mouse over dot to see the name of the station.

Then click to see weather observations and forecasts.

To change the map : click on the green buttons with a black cross to zoom in, on the green button with a dash to zoom out, or on the green arrows for adjacent maps.


METAR-TAF: